Meath Environmental Platform

Observations for Trim Market St

Time AQI Temp °C Hum % Pres Pa CO μg/m³ H₂S μg/m³ NO μg/m³ NO₂ μg/m³ O₃ μg/m³ SO₂ μg/m³ PM1 μg/m³ PM2.5 μg/m³ PM10 μg/m³
Monday 13 July 2026
01:10 1 19.5 70 55,308 0 0 0 5.2 25.73 0 0.71 2.59 4.38
01:09 1 19.6 69 55,347 0 0 0 5.18 23.09 0 0.71 2.11 4.38
01:08 1 19.6 69 55,402 0 0 0 4.88 25.31 0 0.71 2.11 5.64
01:07 1 19.6 69 55,444 0 0 0 4.88 22.74 0 0.71 2.11 5.01
01:06 1 19.6 69 55,507 0 0 0 4.59 24.01 0 0.71 2.11 3.74
01:05 1 19.6 69 55,558 0 0 0 5.81 23.17 0 1.43 3.09 5.64
01:04 1 19.6 69 55,625 0 0 0 4.52 23.31 0 1.43 3.1 5.63
01:03 1 19.7 69 55,685 0 0 0 5.49 23.4 0 1.43 3.1 5.63
01:02 1 19.6 69 55,751 0 0 0 4.63 22.87 0 0.71 3.1 5
01:01 1 19.7 69 55,809 0 0 0 4.5 22.61 0 1.43 2.61 5
01:00 1 19.7 69 55,860 0 0 0 5.11 23.21 0 1.43 2.62 5
00:59 1 19.7 69 55,911 0 0 0 4.51 22.73 0 0 1.64 3.73
00:58 1 19.7 69 55,940 0 0 0 3.42 29.02 0 0.71 2.62 4.36
00:54 1 19.8 69 56,019 0 0 0 5.32 22.59 0 1.43 3.12 4.99
00:52 1 19.8 68 56,101 0 0 0 5.73 20.35 0 0.71 2.64 4.35
00:50 1 19.8 68 56,155 0 0 0 4.94 25.82 0 1.43 2.64 4.35
00:46 1 19.9 68 56,258 0 0 0 4.04 23.33 0 0.71 3.14 6.25
00:41 1 20 68 56,351 0 0 0 5.23 22.21 0 0.71 2.66 4.34
00:39 1 20 68 56,394 0 0 0 6.05 22.02 0 2.14 6.09 11.37
00:37 1 20.1 68 56,449 0 0 0 4.93 22.88 0 0 3.16 5.61